Regional Weather Roundup
Issued by NWS Midland/Odessa, TX

Home | Current Version | Previous Version | Text Only | Print | Product List | Glossary On
Versions: 1 2 3 4 5 6 7 8 9 10 11 12 13 14 15 16 17 18 19 20 21 22 23 24 25 26 27 28 29 30 31 32 33 34 35 36 37 38 39 40 41 42 43 44 45 46 47 48 49 50
000
ASUS44 KMAF 011510
RWRMAF
MIDLAND AREA WEATHER ROUNDUP
NATIONAL WEATHER SERVICE MIDLAND TX
1000 AM CDT SAT OCT 01 2016

...IN SOUTHWEST TEXAS AND SOUTHEAST NEW MEXICO...

CITY           SKY/WX    TMP DP  RH WIND       PRES   REMARKS
ALPINE         CLOUDY    69  60  74 W9        30.25R
ANDREWS        FAIR      66  56  70 SE8       30.14S
ARTESIA        SUNNY     63  63 100 CALM      30.14R
BIG SPRING     CLOUDY    69  57  64 SE10      30.15S
CARLSBAD       SUNNY     65  59  81 S7        30.11R
DRYDEN           N/A     66  62  87 E7        30.12R
FORT STOCKTON  SUNNY     70  60  70 S7        30.12R
GUAD PASS      FOG       59  59 100 SW15      30.24R VSB<1/4
HOBBS          MOSUNNY   64  57  77 SE8       30.15S
MARFA          MOSUNNY   63  61  93 SW5       30.24R
MIDLAND AIRPK  CLOUDY    66  56  69 SE6       30.14S
MIDLAND INTL   SUNNY     68  55  63 S15       30.13R
ODESSA         MOSUNNY   67  55  65 S9        30.14R
PECOS          SUNNY     69  62  79 CALM      30.11R
PRESIDIO       FAIR      72  65  78 CALM      30.14R
SEMINOLE       MOSUNNY   65  56  73 S8        30.15S
SNYDER           N/A     67  54  61 S9        30.13S
WINK           SUNNY     69  57  65 SE9       30.10R
$$
...OTHER STATIONS IN TEXAS...

CITY           SKY/WX    TMP DP  RH WIND       PRES   REMARKS
ABILENE        SUNNY     69  54  58 S6        30.13S
AMARILLO       SUNNY     67  53  61 S18       30.12S
AUSTIN         CLOUDY    70  59  68 CALM      30.11S
BROWNSVILLE    SUNNY     82  68  62 NE8       30.06R
CORPUS CHRISTI CLOUDY    75  65  70 NE8       30.08R
DALLAS FTW     PTSUNNY   73  53  49 S3        30.11R
DEL RIO        CLOUDY    67  56  67 E6        30.11R
EL PASO        MOSUNNY   67  59  75 S6        30.17R
HOUSTON INT    PTSUNNY   74  60  61 VRB5      30.10S
LUBBOCK        MOSUNNY   69  53  56 S15       30.12S
SAN ANGELO     MOSUNNY   65  56  72 S6        30.13R
SAN ANTONIO    CLOUDY    68  55  63 CALM      30.12S
WACO           MOSUNNY   66  59  78 CALM      30.12S
WICHITA FALLS  NOT AVBL
$$
...OTHER LOCATIONS IN NEW MEXICO...

CITY           SKY/WX    TMP DP  RH WIND       PRES   REMARKS
ALAMAGORDO     SUNNY     64  59  82 S5        30.19S
ALBUQUERQUE    MOSUNNY   60  56  86 S3        30.25R
CANNON AFB     SUNNY     63  59  87 W10       30.13R
CLOVIS         SUNNY     61  54  77 W12       30.13S
HOLLOMAN AFB   SUNNY     65  62  89 S3        30.17R
ROSWELL        SUNNY     61  55  81 CALM      30.13R
RUIDOSO        SUNNY     61  48  63 W8        30.31R
SANTA FE       PTSUNNY   58  43  57 N10       30.28R
TRUTH OR CONSE MOSUNNY   64  50  60 W6        30.21R
TUCUMCARI      SUNNY     67  52  58 NW6       30.10S
$$



USA.gov is the U.S. government's official web portal to all federal, state and local government web resources and services.